Location: Home
(42.5358°N, 72.7383°W)
Time: 05:59:47
(UTC-04:00)

COSMOS 2251 DEB - Pass Details

Date: 28 June 2022
Orbit: 769 x 1233 km, 74.1° (Epoch: 15 August)

Event Time Altitude Azimuth Distance (km) Brightness Sun altitude
Exits shadow 03:38:05 19° 235° (SW) 2,013 ? -14.1°
Maximum altitude 03:42:03 44° 298° (WNW) 1,301 ? -13.7°
Drops below altitude 10° 03:48:18 10° 10° (N) 2,855 ? -12.9°
Sets 03:51:13 0° 16° (NNE) 3,886 ? -12.6°
